Retour au catalogue

COSMOS 1579 COOLANT

LostLEO
NORAD 29021·DEBRIS·🇷🇺 Russia

Lancé Jun 29, 1984 depuis Baikonur Cosmodrome

Loading…

Prochains Passages (prochaines 24 heures)

TLE

PériméSource: Space-Track

Époque: Jun 19, 2016, 08:39 UTC

1 29021U 84069AL  16171.36102603  .00046936  00000-0  37040-1 0  9991
2 29021  65.0470  78.8185 0047131 210.7837 149.0462 13.90735695561229

Suivez COSMOS 1579 COOLANT en temps réel avec AllMySat

Download on the App Store